Tracking 20040 objects as of 19-Nov-2019
Live streaming from Space Station
objects crossing your sky now

WESTFORD NEEDLES

Track WESTFORD NEEDLES now!
10-day predictions
WESTFORD NEEDLES is classified as:


NORAD ID: 19051
Int'l Code: 1963-014EA
Perigee: 2,775.6 km
Apogee: 4,484.6 km
Inclination: 87.2 °
Period: 165.9 minutes
Semi major axis: 10001 km
RCS: 0.357 m2 (medium)
Launch date: May 9, 1963
Source: United States (US)
Launch site: AIR FORCE WESTERN TEST RANGE (AFWTR)
aabbcc
Your satellite tracking list
Your tracking list is empty




NASA's NSSDC Master Catalog

Two Line Element Set (TLE):
1 19051U 63014EA  19322.60579465  .00002175  00000-0  68667+0 0  9996
2 19051  87.2009  30.9427 0854432 322.3455  32.0436  8.68020937 26389
Source of the keplerian elements: AFSPC